Flag for Central African Republic Weather past 2 weeks in Bangui, Central African Republic

Now
90 °F

Scattered clouds.


Feels Like: 98 °F
Forecast: 73 / 85 °F
Wind: 5 mph from Southeast

Location: Bangui Airport

Current Time: Oct 24, 2014 at 3:47:46 PM

Latest Report: Oct 24, 2014 at 3:00 PM


Visibility: N/A

Pressure: 29.77 "Hg

Humidity: 59%

Dew point: 73 °F

Location of BanguiLocation

Historic Weather in Bangui — Graph

°F

Bangui temperature yesterday

Maximum temperature yesterday: 86 °F (at 2:00 PM)
Minimum temperature yesterday: 73 °F (at 3:00 AM)
Average temperature yesterday: 77 °F

Past Weeks' High & Low Weather Summary

 TemperatureHumidityPressure
High95 °F (Oct 17, 1:00 PM)100% (Oct 9, 11:00 PM)30.01 "Hg (Oct 9, 11:00 PM)
Low68 °F (Oct 12, 4:00 AM)41% (Oct 17, 1:00 PM)29.74 "Hg (Oct 9, 3:00 PM)
Average78 °F84%29.88 "Hg
* Reported Oct 9 2:00 PM — Oct 24 2:00 PM, Bangui, Weather by CustomWeather, © 2014

Note: Actual official high and low records may vary slightly from our data, if they occured in-between our weather recording intervals... More about our weather records

Advertising

Bangui weather history for previous 24 hours

 ConditionsComfort  
Time TempWeatherWind HumidityBarometerVisibility
2:00 PM
Oct 24
91 °FScattered clouds.6 mph56%29.77 "HgN/A
1:00 PM90 °FScattered clouds.2 mph55%29.83 "HgN/A
12:00 PM88 °FScattered clouds.3 mph62%29.86 "HgN/A
11:00 AM86 °FScattered clouds.No wind70%29.89 "HgN/A
10:00 AM82 °FPartly sunny.2 mph74%29.92 "HgN/A
9:00 AM79 °FPartly sunny.2 mph84%29.95 "Hg4 mi
8:00 AM75 °FOvercast.No wind89%29.95 "Hg4 mi
7:00 AM73 °FOvercast.No wind94%29.92 "Hg4 mi
6:00 AM72 °FFog.No wind100%29.92 "Hg1 mi
5:00 AM73 °FLow clouds.No wind94%29.89 "Hg4 mi
4:00 AM73 °FPassing clouds.No wind94%29.89 "HgN/A
1:00 AM72 °FPassing clouds.3 mph100%29.92 "Hg5 mi
12:00 AM73 °FPassing clouds.2 mph94%29.92 "Hg5 mi
11:00 PM
Oct 23
73 °FThunderstorms. Passing clouds.No wind94%29.92 "Hg5 mi
10:00 PM73 °FThunderstorms. Partly cloudy.2 mph94%29.92 "Hg5 mi
9:00 PM73 °FThunderstorms. Partly cloudy.2 mph94%29.92 "Hg5 mi
8:00 PM75 °FThunderstorms. Partly cloudy.5 mph89%29.92 "HgN/A
7:00 PM75 °FThunderstorms. Passing clouds.2 mph89%29.89 "HgN/A
6:00 PM77 °FPassing clouds.2 mph89%29.86 "HgN/A
5:00 PM79 °FPartly sunny.3 mph84%29.83 "HgN/A
4:00 PM81 °FBroken clouds.8 mph74%29.83 "HgN/A
3:00 PM86 °FBroken clouds.9 mph62%29.83 "HgN/A
Weather by CustomWeather, © 2014

See weather overviewHow to use our weather pages